www.pogodaiklimat.ru

Погода и климат >> Архив погоды >> Антарктида >> Neumayer


ПОГОДА в Neumayer

  • Прогноз погоды в Neumayer
  • Монитор погоды в Neumayer
  • Климат города

АРХИВ ПОГОДЫ в Neumayer

Время (UTC), дата Ветер
(напр.,м/с)
 
Видим.   Явления Облачность Т
(С)
Тd
(С)
f
(%)
Тe
(С)
Тes
(С)
Комфортность P
(гПа)
Po
(гПа)
Тmin
(С)
Tmax
(С)
R
(мм)
R24
(мм)
S
(см)
21 19.04 В 22 <50 м сильная метель {снег} 9/8 1000 м
[St Ac As]
-17.7 -19.7 84 -35 -35 опасность
обморожения
979.8 974.4
00 20.04 В 21 <50 м сильная метель 4/0
[Ci fib]
-17.2 -19.2 84 -34 -34 опасность
обморожения
977.9 972.5 -17.7 -14.8
03 20.04 В 24 н/о н/о -17.6 -19.4 86 -35 -35 опасность
обморожения
975.2 969.9
06 20.04 В 23 н/о н/о -18.3 -20.3 84 -36 -36 опасность
обморожения
974.8 969.5
09 20.04 В 21 <50 м сильная метель 10/0
[Ac und]
-18.1 -20.1 84 -35 -35 опасность
обморожения
976.2 970.8
12 20.04 В 20 50 м сильная метель 4/1 600 м
[Sc Ac As Ci fib]
-18.1 -20.2 84 -35 -35 опасность
обморожения
976.0 970.6 -18.4 -17.0
15 20.04 В 17 200 м метель 9/0 2000 м
[Ac inh Ci fib]
-17.5 -20.0 81 -33 -33 опасность
обморожения
976.9 971.5
18 20.04 В 15 1000 м метель 1/0 2000 м
[Ac As Ci fib]
-17.2 -19.9 79 -32 -32 опасность
обморожения
977.5 972.2
21 20.04 В 13 1000 м метель 4/4 1500 м
[Sc]
-17.1 -20.2 77 -31 -31 опасность
обморожения
977.8 972.4
00 21.04 В 9 2000 м слабый снег {метель} туман 9/9 1500 м
[Frnb]
-15.9 -20.9 65 -28 -28 979.2 973.8 -18.1 -15.8
03 21.04 В 7 н/о н/о -16.7 -22.9 59 -28 -28 980.0 974.7
06 21.04 ЮЗ 4 н/о н/о -26.2 -31.0 64 -36 -36 опасность
обморожения
980.5 975.2
09 21.04 Ю 3 50 км ясно -30.5 -34.7 67 -40 -40 опасность
обморожения
981.4 976.0
12 21.04 ЮЗ 3 50 км ясно -30.9 -34.8 68 -40 -40 опасность
обморожения
982.1 976.7 -31.8 -15.4
15 21.04 З 3 50 км 1/0 2000 м
[Ac trans]
-28.4 -35.2 52 -37 -37 опасность
обморожения
982.4 977.0
18 21.04 Ю 3 50 км 1/0 2000 м
[Ac As]
-27.8 -32.2 66 -37 -37 опасность
обморожения
983.5 978.1
21 21.04 ЮЗ 2 50 км 3/0
[Ci fib]
-22.4 -29.5 52 -27 -27 983.7 978.3
00 22.04 В 3 20 км снежные кристаллы 10/10 200 м
[Frnb]
-25.6 -28.7 75 -34 -34 опасность
обморожения
982.7 977.3 -31.2 -20.9
03 22.04 В 12 н/о н/о -22.7 -26.6 70 -38 -38 опасность
обморожения
979.7 974.3
06 22.04 В 20 н/о н/о -21.5 -24.8 75 -40 -40 опасность
обморожения
975.4 970.0
09 22.04 В 24 <50 м слабый снег {метель} туман 10/10 50 м
[Frnb]
-21.4 -23.4 84 -41 -41 опасность
обморожения
971.1 965.8
12 22.04 В 21 <50 м сильная метель {снег} 10/10 100 м
[Frnb]
-20.1 -22.3 83 -38 -38 опасность
обморожения
970.8 965.4 -24.9 -19.8
15 22.04 В 19 <50 м сильная метель 10/10 100 м
[Frnb]
-17.2 -19.1 85 -33 -33 опасность
обморожения
968.9 963.5
18 22.04 В 15 <50 м слабый снег {метель} туман 10/10 100 м
[Frnb]
-14.4 -16.1 87 -28 -28 966.3 961.0
21 22.04 В 11 500 м снег {метель} туман 10/10 200 м
[Frnb]
-9.7 -10.9 91 -21 -21 964.6 959.3
00 23.04 В 9 200 м снег {метель} туман 10/10 50 м
[Frnb]
-5.5 -6.2 95 -15 -15 962.1 956.7 -20.0 -5.2
03 23.04 В 9 н/о н/о -3.5 -3.8 98 -13 -13 960.5 955.2
06 23.04 В 16 н/о н/о -8.1 -9.0 93 -21 -21 960.0 954.6
09 23.04 З 6 500 м слабый снег {метель} туман 10/10 300 м
[Frnb]
-8.0 -9.3 90 -16 -16 961.4 956.0
12 23.04 З 10 500 м слабый снег {метель} туман 10/10 600 м
[Frnb]
-11.9 -14.1 84 -23 -23 967.1 961.7 -12.0 -3.1
15 23.04 СЗ 6 10 км снежные зёрна {метель} 10/10 600 м
[Frnb]
-13.2 -16.6 76 -22 -22 973.0 967.6
18 23.04 С 3 50 км {снег, метель} 9/0 2000 м
[Ac inh]
-18.1 -20.0 85 -25 -25 978.7 973.3
21 23.04 В 6 10 км слабый снег 9/9 1500 м
[Frnb]
-21.8 -24.0 82 -33 -33 опасность
обморожения
982.1 976.7
00 24.04 В 8 10 км слабый снег {метель} туман 10/10 1000 м
[Frnb]
-14.3 -17.1 79 -25 -25 983.8 978.4 -22.1 -11.9
03 24.04 В 11 н/о н/о -12.9 -15.0 84 -25 -25 983.7 978.3
06 24.04 В 2 н/о н/о -14.9 -15.9 92 -19 -19 983.0 977.6
09 24.04 З 4 20 км 9/8 200 м
[Cb calv Ac cuf]
-17.2 -19.2 84 -26 -26 982.2 976.8
12 24.04 ЮЗ 4 20 км 9/0 2000 м
[Ac As]
-16.5 -18.4 85 -24 -24 983.1 977.8 -18.0 -12.3
15 24.04 ЮЗ 7 2000 м слабый снег {метель} туман 10/10 1000 м
[Frnb]
-15.3 -18.0 80 -26 -26 981.9 976.5
18 24.04 ЮЗ 10 500 м снег {метель} туман 10/10 200 м
[Frnb]
-15.2 -17.2 85 -27 -27 980.6 975.3
21 24.04 ЮЗ 8 1000 м слабый снег {метель} туман 10/10 100 м
[Frnb]
-15.9 -17.9 85 -27 -27 980.0 974.6
00 25.04 З 7 1000 м слабый снег {метель} туман 10/10 100 м
[Frnb]
-15.0 -17.0 85 -25 -25 979.3 973.9 -16.4 -14.8
03 25.04 З 6 н/о н/о -14.4 -16.3 85 -24 -24 978.3 972.9
06 25.04 З 8 н/о н/о -14.3 -16.3 85 -25 -25 977.4 972.0
09 25.04 З 9 1000 м слабый снег {метель} туман 10/10 300 м
[Frnb]
-16.3 -18.5 83 -28 -28 977.6 972.3
12 25.04 З 12 1000 м слабый снег {метель} туман 10/10 300 м
[Frnb]
-17.0 -19.3 82 -31 -31 опасность
обморожения
978.1 972.7 -17.0 -13.5
15 25.04 З 11 1000 м слабый снег {метель} туман 10/10 600 м
[Frnb]
-18.0 -20.3 82 -31 -31 опасность
обморожения
977.8 972.4
18 25.04 З 12 1000 м слабый снег {метель} туман 10/10 600 м
[Frnb]
-18.4 -20.8 81 -32 -32 опасность
обморожения
977.6 972.3
21 25.04 СЗ 10 1000 м слабый снег {метель} туман 10/10 100 м
[Frnb]
-19.6 -22.0 81 -33 -33 опасность
обморожения
981.6 976.2
00 26.04 СЗ 3 20 км слабый снег {метель} 10/10 300 м
[Frnb]
-19.9 -22.8 78 -28 -28 987.3 981.9 -22.6 -17.0
03 26.04 В 7 н/о н/о -19.7 -22.3 80 -31 -31 опасность
обморожения
988.8 983.4
06 26.04 В 10 н/о н/о -18.0 -20.4 81 -31 -31 опасность
обморожения
988.0 982.6
09 26.04 В 13 200 м слабый снег {метель} туман 10/10 600 м
[Frnb]
-16.1 -18.2 84 -30 -30 987.0 981.6
12 26.04 В 14 200 м метель {снег} 10/8 1000 м
[St Cs]
-14.6 -16.5 85 -28 -28 985.3 979.9 -21.0 -14.3
15 26.04 В 16 200 м метель 10/9 1000 м
[St]
-13.1 -14.9 86 -27 -27 983.3 978.0
18 26.04 В 17 200 м метель 3/3 600 м
[St]
-12.6 -14.3 87 -26 -26 981.4 976.1

 

Местоположение метеостанции Neumayer (Антарктида): широта -70.66 долгота -8.25 высота над уровнем моря 50 м.

В архиве по умолчанию представлена погода в Neumayer за последнюю неделю. Архивные данные за месяц целиком и за предыдущие месяцы, начиная с января 2011 года, Вы можете получить, выбрав интересующий диапазон дат из раскрывающегося списка и нажав кнопку "Ввод!".

Внимание! Время в таблицах - всемирное. Для получения местного времени необходимо прибавить поправку, которая в Neumayer равна 0 ч.

Смотрите также архив погоды в соседних городах и на ближайших метеорологических станциях:

Погода в S.a.n.a.e. aws (Антарктида) (227 км)
Погода в Nordenskiold Base (Антарктида) (320 км)
Погода в Troll (Антарктида) (406 км)
Погода в Kohnen Ep9 (Антарктида) (552 км)
Погода в Maitri (Антарктида) (732 км)
Погода в Novolazarevskaja (Антарктида) (734 км)
Погода в Halley (Антарктида) (797 км)
Погода в Base Belgrano Ii (Антарктида) (1110 км)
Погода в Relay Station (Антарктида) (1713 км)
Погода в Butler Island (Антарктида) (1789 км)

Пояснения к столбцам:

Ветер - указаны скорость ветра в м/с - средняя за 10 мин, порывы в срок и между сроками (в фигурных скобках) и направление, откуда дует ветер: С - северный, СВ - северо-восточный, В - восточный, ЮВ - юго-восточный, Ю - южный, ЮЗ - юго-западный, З - западный, СЗ - северо-западный.
Видимость - горизонтальная дальность видимости в метрах или километрах. При видимости от 1 до 10 км при отсутствии осадков обычно наблюдается дымка, при ухудшении видимости до 1 км и менее - туман. В сухую погоду видимость может ухудшаться дымом, пылью или мглою.
Явления - указаны атмосферные явления, наблюдавшиеся в срок или в последний час перед сроком; фигурными скобками обозначены явления, наблюдавшиеся между сроками (за 1-3 часа до срока); квадратными скобками обозначены град или гололедные отложения с указанием их диаметра в мм.
Облачность - указаны через наклонную черту общая и нижняя облачность в баллах и высота нижней границы облаков в метрах; квадратными скобками обозначены формы облаков: Ci - перистые, Cs - перисто-слоистые, Cc - перисто-кучевые, Ac - высококучевые, As - высокослоистые, Sc - слоисто-кучевые, Ns - слоисто-дождевые, Cu - кучевые, Cb - кучево-дождевые. Подробнее классификацию облаков см. в Атласе облаков (PDF).
T - Температура воздуха - температура, измеренная на высоте 2 м над землей.
Td - Температура точки росы - температура, при понижении до которой содержащийся в воздухе водяной пар достигнет насыщения.
f - Относительная влажность воздуха - влажноcть воздуха, измеренная на высоте 2 м над землей.
Te - Эффективная температура - температура, которую ощущает одетый по сезону человек в тени. Характеристика душности погоды. При расчете учитывается влияние влажности воздуха и скорости ветра на теплоощущения человека.
Tes - Эффективная температура на солнце - температура, которую ощущает человек, с поправкой на солнечный нагрев. Характеристика знойности погоды. Зависит от высоты солнца над горизонтом, облачности и скорости ветра. Ночью, в пасмурную погоду, а также при ветре 12 м/с и более поправка равна нулю.
P - Атмосферное давление - приведенное к уровню моря атмосферное давление.
Po - Атмосферное давление - измеренное на уровне метеостанции атмосферное давление.
Tmin - Минимальная температура - минимум температуры воздуха на высоте 2 м над землей.
Tmax - Максимальная температура - максимум температуры воздуха на высоте 2 м над землей.
R - Количество осадков - Количество выпавших осадков за период времени, мм. При наведении курсора мыши на число - период времени, за который выпало указанное количество осадков.
R24 - Количество осадков - Количество выпавших осадков за 24 часа, мм.
S - Снежный покров - Высота снежного покрова, см. При наведении курсора мыши на число - состояние снежного покрова и степень покрытия местности в баллах.